Time,TemperatureF,DewpointF,PressureIn,WindDirection,WindDirectionDegrees,WindSpeedMPH,WindSpeedGustMPH,Humidity,HourlyPrecipIn,Conditions,Clouds,dailyrainin,SoftwareType,DateUTC
2013-04-23 00:02:00,30.0,27.0,30.45,West,275,0.0,-999.0,88,-99.99,,,-99.99,,2013-04-23 07:02:00,
2013-04-23 00:11:00,30.0,27.0,30.45,West,275,0.0,-999.0,88,-99.99,,,-99.99,,2013-04-23 07:11:00,
2013-04-23 00:21:00,29.0,26.0,30.45,West,275,0.0,-999.0,88,-99.99,,,-99.99,,2013-04-23 07:21:00,
2013-04-23 00:32:00,28.0,25.0,30.45,West,275,0.0,-999.0,88,-99.99,,,-99.99,,2013-04-23 07:32:00,
2013-04-23 00:42:00,28.0,25.0,30.45,West,275,0.0,-999.0,88,-99.99,,,-99.99,,2013-04-23 07:42:00,
2013-04-23 00:52:00,28.0,25.0,30.45,West,275,0.0,-999.0,89,-99.99,,,-99.99,,2013-04-23 07:52:00,
2013-04-23 01:01:00,28.0,25.0,30.45,West,275,0.0,-999.0,90,-99.99,,,-99.99,,2013-04-23 08:01:00,
2013-04-23 01:11:00,28.0,25.0,30.45,West,275,0.0,-999.0,90,-99.99,,,-99.99,,2013-04-23 08:11:00,
2013-04-23 01:21:00,27.0,24.0,30.45,West,275,0.0,-999.0,90,-99.99,,,-99.99,,2013-04-23 08:21:00,
2013-04-23 01:31:00,27.0,24.0,30.45,West,275,0.0,-999.0,90,-99.99,,,-99.99,,2013-04-23 08:31:00,
2013-04-23 01:42:00,27.0,24.0,30.45,West,275,0.0,-999.0,90,-99.99,,,-99.99,,2013-04-23 08:42:00,
2013-04-23 01:52:00,27.0,24.0,30.45,West,275,0.0,-999.0,90,-99.99,,,-99.99,,2013-04-23 08:52:00,
2013-04-23 02:01:00,27.0,25.0,30.44,West,275,0.0,-999.0,91,-99.99,,,-99.99,,2013-04-23 09:01:00,
2013-04-23 02:11:00,27.0,25.0,30.44,West,275,0.0,-999.0,91,-99.99,,,-99.99,,2013-04-23 09:11:00,
2013-04-23 02:21:00,27.0,25.0,30.44,West,275,0.0,-999.0,92,-99.99,,,-99.99,,2013-04-23 09:21:00,
2013-04-23 02:32:00,26.0,24.0,30.44,West,275,0.0,-999.0,92,-99.99,,,-99.99,,2013-04-23 09:32:00,
2013-04-23 02:42:00,26.0,24.0,30.44,West,275,0.0,-999.0,92,-99.99,,,-99.99,,2013-04-23 09:42:00,
2013-04-23 02:52:00,26.0,24.0,30.43,West,275,0.0,-999.0,92,-99.99,,,-99.99,,2013-04-23 09:52:00,
2013-04-23 03:02:00,26.0,24.0,30.43,West,275,0.0,-999.0,92,-99.99,,,-99.99,,2013-04-23 10:02:00,
2013-04-23 03:12:00,26.0,24.0,30.43,West,275,0.0,-999.0,92,-99.99,,,-99.99,,2013-04-23 10:12:00,
2013-04-23 03:22:00,25.0,23.0,30.43,West,275,0.0,-999.0,92,-99.99,,,-99.99,,2013-04-23 10:22:00,
2013-04-23 03:32:00,25.0,23.0,30.43,West,275,0.0,-999.0,92,-99.99,,,-99.99,,2013-04-23 10:32:00,
2013-04-23 03:42:00,25.0,23.0,30.43,West,275,0.0,-999.0,92,-99.99,,,-99.99,,2013-04-23 10:42:00,
2013-04-23 03:52:00,25.0,23.0,30.43,West,275,0.0,-999.0,92,-99.99,,,-99.99,,2013-04-23 10:52:00,
2013-04-23 04:02:00,25.0,23.0,30.43,West,275,0.0,-999.0,92,-99.99,,,-99.99,,2013-04-23 11:02:00,
2013-04-23 04:12:00,25.0,23.0,30.43,West,275,0.0,-999.0,92,-99.99,,,-99.99,,2013-04-23 11:12:00,
2013-04-23 04:21:00,25.0,23.0,30.43,West,275,0.0,-999.0,92,-99.99,,,-99.99,,2013-04-23 11:21:00,
2013-04-23 04:32:00,24.0,22.0,30.43,West,275,0.0,-999.0,93,-99.99,,,-99.99,,2013-04-23 11:32:00,
2013-04-23 04:42:00,24.0,22.0,30.43,West,275,0.0,-999.0,93,-99.99,,,-99.99,,2013-04-23 11:42:00,
2013-04-23 04:52:00,24.0,22.0,30.43,West,275,0.0,-999.0,92,-99.99,,,-99.99,,2013-04-23 11:52:00,
2013-04-23 05:02:00,25.0,23.0,30.43,West,275,0.0,-999.0,93,-99.99,,,-99.99,,2013-04-23 12:02:00,
2013-04-23 05:12:00,25.0,23.0,30.43,West,275,0.0,-999.0,93,-99.99,,,-99.99,,2013-04-23 12:12:00,
2013-04-23 05:22:00,25.0,23.0,30.42,West,275,0.0,-999.0,93,-99.99,,,-99.99,,2013-04-23 12:22:00,
2013-04-23 05:32:00,24.0,22.0,30.42,West,275,0.0,-999.0,93,-99.99,,,-99.99,,2013-04-23 12:32:00,
2013-04-23 05:41:00,24.0,22.0,30.42,West,275,0.0,-999.0,93,-99.99,,,-99.99,,2013-04-23 12:41:00,
2013-04-23 05:51:00,24.0,22.0,30.42,West,275,0.0,-999.0,93,-99.99,,,-99.99,,2013-04-23 12:51:00,
2013-04-23 06:01:00,24.0,22.0,30.42,West,275,0.0,-999.0,93,-99.99,,,-99.99,,2013-04-23 13:01:00,
2013-04-23 06:11:00,24.0,22.0,30.42,West,275,0.0,-999.0,93,-99.99,,,-99.99,,2013-04-23 13:11:00,
2013-04-23 06:21:00,23.0,21.0,30.42,West,275,0.0,-999.0,93,-99.99,,,-99.99,,2013-04-23 13:21:00,
2013-04-23 06:32:00,24.0,22.0,30.42,West,275,0.0,-999.0,93,-99.99,,,-99.99,,2013-04-23 13:32:00,
2013-04-23 06:41:00,24.0,22.0,30.42,West,275,0.0,-999.0,93,-99.99,,,-99.99,,2013-04-23 13:41:00,
2013-04-23 06:52:00,24.0,22.0,30.42,West,275,0.0,-999.0,93,-99.99,,,-99.99,,2013-04-23 13:52:00,
2013-04-23 07:01:00,24.0,23.0,30.42,West,279,0.0,-999.0,94,-99.99,,,-99.99,,2013-04-23 14:01:00,
2013-04-23 07:11:00,24.0,23.0,30.42,West,279,0.0,-999.0,94,-99.99,,,-99.99,,2013-04-23 14:11:00,
2013-04-23 07:22:00,25.0,23.0,30.42,West,279,0.0,-999.0,93,-99.99,,,-99.99,,2013-04-23 14:22:00,
2013-04-23 07:31:00,27.0,26.0,30.42,West,279,0.0,-999.0,94,-99.99,,,-99.99,,2013-04-23 14:31:00,
2013-04-23 07:42:00,27.0,26.0,30.42,West,279,0.0,-999.0,94,-99.99,,,-99.99,,2013-04-23 14:42:00,
2013-04-23 07:52:00,27.0,25.0,30.42,West,279,0.0,-999.0,93,-99.99,,,-99.99,,2013-04-23 14:52:00,
2013-04-23 08:01:00,27.0,25.0,30.42,West,279,0.0,-999.0,93,-99.99,,,-99.99,,2013-04-23 15:01:00,
2013-04-23 08:12:00,31.0,29.0,30.42,West,279,0.0,-999.0,91,-99.99,,,-99.99,,2013-04-23 15:12:00,
2013-04-23 08:21:00,33.0,29.0,30.41,West,279,0.0,-999.0,85,-99.99,,,-99.99,,2013-04-23 15:21:00,
2013-04-23 08:32:00,34.0,28.0,30.41,SSE,151,0.0,-999.0,80,-99.99,,,-99.99,,2013-04-23 15:32:00,
2013-04-23 08:42:00,34.0,28.0,30.41,SSE,151,0.0,-999.0,80,-99.99,,,-99.99,,2013-04-23 15:42:00,
2013-04-23 08:52:00,36.0,29.0,30.41,East,83,0.0,-999.0,77,-99.99,,,-99.99,,2013-04-23 15:52:00,
2013-04-23 09:02:00,37.0,28.0,30.40,East,89,0.0,-999.0,71,-99.99,,,-99.99,,2013-04-23 16:02:00,
2013-04-23 09:12:00,37.0,28.0,30.40,East,89,0.0,-999.0,71,-99.99,,,-99.99,,2013-04-23 16:12:00,
2013-04-23 09:23:00,38.0,29.0,30.40,East,90,1.0,-999.0,69,-99.99,,,-99.99,,2013-04-23 16:23:00,
2013-04-23 09:33:00,39.0,29.0,30.40,East,81,1.0,-999.0,67,-99.99,,,-99.99,,2013-04-23 16:33:00,
2013-04-23 09:42:00,39.0,29.0,30.40,East,81,1.0,-999.0,67,-99.99,,,-99.99,,2013-04-23 16:42:00,
2013-04-23 09:52:00,40.0,28.0,30.40,SSE,164,1.0,-999.0,63,-99.99,,,-99.99,,2013-04-23 16:52:00,
2013-04-23 10:02:00,42.0,29.0,30.40,SE,136,1.0,-999.0,59,-99.99,,,-99.99,,2013-04-23 17:02:00,
2013-04-23 10:11:00,42.0,29.0,30.40,SE,136,1.0,-999.0,59,-99.99,,,-99.99,,2013-04-23 17:11:00,
2013-04-23 10:22:00,42.0,27.0,30.39,SSE,164,1.0,-999.0,56,-99.99,,,-99.99,,2013-04-23 17:22:00,
2013-04-23 10:32:00,43.0,28.0,30.39,South,178,1.0,-999.0,55,-99.99,,,-99.99,,2013-04-23 17:32:00,
2013-04-23 10:42:00,43.0,28.0,30.39,South,178,1.0,-999.0,55,-99.99,,,-99.99,,2013-04-23 17:42:00,
2013-04-23 10:53:00,43.0,27.0,30.39,South,180,1.0,-999.0,52,-99.99,,,-99.99,,2013-04-23 17:53:00,
2013-04-23 11:02:00,43.0,23.0,30.39,East,88,1.0,-999.0,45,-99.99,,,-99.99,,2013-04-23 18:02:00,
2013-04-23 11:12:00,43.0,23.0,30.39,East,88,1.0,-999.0,45,-99.99,,,-99.99,,2013-04-23 18:12:00,
2013-04-23 11:22:00,44.0,25.0,30.38,SE,143,1.0,-999.0,46,-99.99,,,-99.99,,2013-04-23 18:22:00,
2013-04-23 11:32:00,45.0,25.0,30.38,NE,51,1.0,-999.0,46,-99.99,,,-99.99,,2013-04-23 18:32:00,
2013-04-23 11:42:00,45.0,25.0,30.38,NE,51,1.0,-999.0,46,-99.99,,,-99.99,,2013-04-23 18:42:00,
2013-04-23 11:52:00,45.0,24.0,30.37,ENE,73,1.0,-999.0,44,-99.99,,,-99.99,,2013-04-23 18:52:00,
2013-04-23 12:02:00,45.0,22.0,30.37,ENE,61,0.0,-999.0,40,-99.99,,,-99.99,,2013-04-23 19:02:00,
2013-04-23 12:11:00,45.0,22.0,30.37,ENE,61,0.0,-999.0,40,-99.99,,,-99.99,,2013-04-23 19:11:00,
2013-04-23 12:21:00,45.0,22.0,30.37,SSW,202,1.0,-999.0,39,-99.99,,,-99.99,,2013-04-23 19:21:00,
2013-04-23 12:32:00,47.0,23.0,30.36,West,278,3.0,-999.0,39,-99.99,,,-99.99,,2013-04-23 19:32:00,
2013-04-23 12:42:00,47.0,23.0,30.36,West,278,3.0,-999.0,39,-99.99,,,-99.99,,2013-04-23 19:42:00,
2013-04-23 12:52:00,47.0,23.0,30.36,WNW,284,3.0,-999.0,39,-99.99,,,-99.99,,2013-04-23 19:52:00,
2013-04-23 13:01:00,47.0,21.0,30.35,SSW,197,2.0,-999.0,36,-99.99,,,-99.99,,2013-04-23 20:01:00,
2013-04-23 13:11:00,47.0,21.0,30.35,SSW,197,2.0,-999.0,36,-99.99,,,-99.99,,2013-04-23 20:11:00,
2013-04-23 13:21:00,47.0,22.0,30.35,West,273,3.0,-999.0,37,-99.99,,,-99.99,,2013-04-23 20:21:00,
2013-04-23 13:31:00,47.0,21.0,30.35,NW,313,2.0,-999.0,36,-99.99,,,-99.99,,2013-04-23 20:31:00,
2013-04-23 13:42:00,47.0,21.0,30.35,NW,313,2.0,-999.0,36,-99.99,,,-99.99,,2013-04-23 20:42:00,
2013-04-23 13:51:00,47.0,20.0,30.35,West,281,5.0,-999.0,34,-99.99,,,-99.99,,2013-04-23 20:51:00,
2013-04-23 14:01:00,48.0,20.0,30.34,SSW,192,2.0,-999.0,32,-99.99,,,-99.99,,2013-04-23 21:01:00,
2013-04-23 14:11:00,48.0,20.0,30.34,SSW,192,2.0,-999.0,32,-99.99,,,-99.99,,2013-04-23 21:11:00,
2013-04-23 14:21:00,48.0,24.0,30.34,WNW,286,1.0,-999.0,38,-99.99,,,-99.99,,2013-04-23 21:21:00,
2013-04-23 14:32:00,49.0,24.0,30.34,East,97,1.0,-999.0,37,-99.99,,,-99.99,,2013-04-23 21:32:00,
2013-04-23 14:43:00,49.0,24.0,30.34,East,97,1.0,-999.0,37,-99.99,,,-99.99,,2013-04-23 21:43:00,
2013-04-23 14:52:00,49.0,23.0,30.33,NNE,13,1.0,-999.0,36,-99.99,,,-99.99,,2013-04-23 21:52:00,
2013-04-23 15:02:00,49.0,21.0,30.33,ENE,57,2.0,-999.0,33,-99.99,,,-99.99,,2013-04-23 22:02:00,
2013-04-23 15:12:00,49.0,21.0,30.33,ENE,57,2.0,-999.0,33,-99.99,,,-99.99,,2013-04-23 22:12:00,
2013-04-23 15:22:00,50.0,24.0,30.32,NW,309,3.0,-999.0,36,-99.99,,,-99.99,,2013-04-23 22:22:00,
2013-04-23 15:33:00,50.0,23.0,30.32,ENE,57,1.0,-999.0,34,-99.99,,,-99.99,,2013-04-23 22:33:00,
2013-04-23 15:42:00,50.0,23.0,30.32,ENE,57,1.0,-999.0,34,-99.99,,,-99.99,,2013-04-23 22:42:00,
2013-04-23 15:52:00,51.0,21.0,30.31,SSW,201,2.0,-999.0,30,-99.99,,,-99.99,,2013-04-23 22:52:00,
2013-04-23 16:02:00,50.0,19.0,30.30,WNW,297,3.0,-999.0,29,-99.99,,,-99.99,,2013-04-23 23:02:00,
2013-04-23 16:12:00,50.0,19.0,30.30,WNW,297,3.0,-999.0,29,-99.99,,,-99.99,,2013-04-23 23:12:00,
2013-04-23 16:22:00,51.0,21.0,30.30,SW,222,3.0,-999.0,30,-99.99,,,-99.99,,2013-04-23 23:22:00,
2013-04-23 16:31:00,51.0,21.0,30.30,NW,315,1.0,-999.0,30,-99.99,,,-99.99,,2013-04-23 23:31:00,
2013-04-23 16:41:00,51.0,21.0,30.30,NW,315,1.0,-999.0,30,-99.99,,,-99.99,,2013-04-23 23:41:00,
2013-04-23 16:52:00,51.0,22.0,30.29,WNW,301,4.0,-999.0,32,-99.99,,,-99.99,,2013-04-23 23:52:00,
2013-04-23 17:01:00,52.0,24.0,30.29,WNW,288,2.0,-999.0,33,-99.99,,,-99.99,,2013-04-24 00:01:00,
2013-04-23 17:11:00,52.0,24.0,30.29,WNW,288,2.0,-999.0,33,-99.99,,,-99.99,,2013-04-24 00:11:00,
2013-04-23 17:21:00,50.0,21.0,30.29,WNW,294,3.0,-999.0,31,-99.99,,,-99.99,,2013-04-24 00:21:00,
2013-04-23 17:32:00,51.0,21.0,30.28,NE,40,3.0,-999.0,31,-99.99,,,-99.99,,2013-04-24 00:32:00,
2013-04-23 17:41:00,51.0,21.0,30.28,NE,40,3.0,-999.0,31,-99.99,,,-99.99,,2013-04-24 00:41:00,
2013-04-23 17:51:00,52.0,25.0,30.28,NNW,342,2.0,-999.0,34,-99.99,,,-99.99,,2013-04-24 00:51:00,
2013-04-23 18:01:00,51.0,24.0,30.28,WSW,238,3.0,-999.0,34,-99.99,,,-99.99,,2013-04-24 01:01:00,
2013-04-23 18:11:00,51.0,24.0,30.28,WSW,238,3.0,-999.0,34,-99.99,,,-99.99,,2013-04-24 01:11:00,
2013-04-23 18:21:00,51.0,24.0,30.28,NNW,329,1.0,-999.0,34,-99.99,,,-99.99,,2013-04-24 01:21:00,
2013-04-23 18:31:00,51.0,21.0,30.29,NW,318,2.0,-999.0,31,-99.99,,,-99.99,,2013-04-24 01:31:00,
2013-04-23 18:42:00,51.0,21.0,30.29,NW,318,2.0,-999.0,31,-99.99,,,-99.99,,2013-04-24 01:42:00,
2013-04-23 18:52:00,51.0,21.0,30.29,West,265,1.0,-999.0,31,-99.99,,,-99.99,,2013-04-24 01:52:00,
2013-04-23 19:02:00,50.0,24.0,30.29,WNW,302,2.0,-999.0,36,-99.99,,,-99.99,,2013-04-24 02:02:00,
2013-04-23 19:12:00,50.0,24.0,30.29,WNW,302,2.0,-999.0,36,-99.99,,,-99.99,,2013-04-24 02:12:00,
2013-04-23 19:23:00,49.0,22.0,30.29,WNW,296,4.0,-999.0,34,-99.99,,,-99.99,,2013-04-24 02:23:00,
2013-04-23 19:34:00,49.0,23.0,30.29,West,276,2.0,-999.0,35,-99.99,,,-99.99,,2013-04-24 02:34:00,
2013-04-23 19:43:00,49.0,23.0,30.29,West,276,2.0,-999.0,35,-99.99,,,-99.99,,2013-04-24 02:43:00,
2013-04-23 19:53:00,48.0,25.0,30.29,West,276,1.0,-999.0,40,-99.99,,,-99.99,,2013-04-24 02:53:00,
2013-04-23 20:03:00,46.0,27.0,30.30,West,276,0.0,-999.0,48,-99.99,,,-99.99,,2013-04-24 03:03:00,
2013-04-23 20:12:00,46.0,27.0,30.30,West,276,0.0,-999.0,48,-99.99,,,-99.99,,2013-04-24 03:12:00,
2013-04-23 20:23:00,44.0,28.0,30.31,West,276,0.0,-999.0,54,-99.99,,,-99.99,,2013-04-24 03:23:00,
2013-04-23 20:35:00,42.0,27.0,30.31,West,276,0.0,-999.0,55,-99.99,,,-99.99,,2013-04-24 03:35:00,
2013-04-23 21:02:00,39.0,28.0,30.32,West,276,0.0,-999.0,65,-99.99,,,-99.99,,2013-04-24 04:02:00,
2013-04-23 21:12:00,39.0,28.0,30.32,West,276,0.0,-999.0,65,-99.99,,,-99.99,,2013-04-24 04:12:00,
2013-04-23 21:22:00,38.0,28.0,30.32,West,276,0.0,-999.0,67,-99.99,,,-99.99,,2013-04-24 04:22:00,
2013-04-23 21:33:00,37.0,28.0,30.32,West,276,0.0,-999.0,71,-99.99,,,-99.99,,2013-04-24 04:33:00,
2013-04-23 21:43:00,37.0,28.0,30.32,West,276,0.0,-999.0,71,-99.99,,,-99.99,,2013-04-24 04:43:00,
2013-04-23 21:52:00,36.0,29.0,30.33,West,276,0.0,-999.0,74,-99.99,,,-99.99,,2013-04-24 04:52:00,
2013-04-23 22:02:00,35.0,29.0,30.33,West,276,0.0,-999.0,78,-99.99,,,-99.99,,2013-04-24 05:02:00,
2013-04-23 22:12:00,35.0,29.0,30.33,West,276,0.0,-999.0,78,-99.99,,,-99.99,,2013-04-24 05:12:00,
2013-04-23 22:21:00,34.0,28.0,30.33,West,276,0.0,-999.0,79,-99.99,,,-99.99,,2013-04-24 05:21:00,
2013-04-23 22:32:00,33.0,28.0,30.33,West,276,0.0,-999.0,81,-99.99,,,-99.99,,2013-04-24 05:32:00,
2013-04-23 22:42:00,33.0,28.0,30.33,West,276,0.0,-999.0,81,-99.99,,,-99.99,,2013-04-24 05:42:00,
2013-04-23 22:51:00,33.0,28.0,30.33,West,276,0.0,-999.0,83,-99.99,,,-99.99,,2013-04-24 05:51:00,
2013-04-23 23:02:00,32.0,28.0,30.33,West,276,0.0,-999.0,84,-99.99,,,-99.99,,2013-04-24 06:02:00,
2013-04-23 23:11:00,32.0,28.0,30.33,West,276,0.0,-999.0,84,-99.99,,,-99.99,,2013-04-24 06:11:00,
2013-04-23 23:21:00,31.0,27.0,30.34,West,276,0.0,-999.0,85,-99.99,,,-99.99,,2013-04-24 06:21:00,
2013-04-23 23:32:00,30.0,26.0,30.34,West,276,0.0,-999.0,86,-99.99,,,-99.99,,2013-04-24 06:32:00,
2013-04-23 23:41:00,30.0,26.0,30.34,West,276,0.0,-999.0,86,-99.99,,,-99.99,,2013-04-24 06:41:00,
2013-04-23 23:51:00,31.0,28.0,30.34,West,276,0.0,-999.0,87,-99.99,,,-99.99,,2013-04-24 06:51:00,